NKS210 KRNO-KLAS

Flight info

Callsign NKS210
Flight time 0h 58m
Altitude 33000
Route PESKE TQILA COKTL4
Aircraft A320/M-SDE3FGHIRWY/LB1

Departure

Time 2026-05-07 19:12
Airport Reno Tahoe International Airport (KRNO)

Arrival

Time 2026-05-07 20:11
Airport Harry Reid International Airport (KLAS)
Time Latitude Longitude Altitude Speed Heading
2026-05-07 18:27 39.50532 -119.77317 4506 ft 0 kts 184°
2026-05-07 19:00 39.50556 -119.77315 4505 ft 4 kts 178°
2026-05-07 19:01 39.50580 -119.77322 4506 ft 4 kts 138°
2026-05-07 19:01 39.50590 -119.77344 4506 ft 1 kts 90°
2026-05-07 19:01 39.50590 -119.77345 4506 ft 0 kts 90°
2026-05-07 19:04 39.50590 -119.77340 4500 ft 1 kts 90°
2026-05-07 19:04 39.50590 -119.77325 4499 ft 2 kts 90°
2026-05-07 19:04 39.50590 -119.77301 4500 ft 3 kts 90°
2026-05-07 19:04 39.50590 -119.77286 4500 ft 0 kts 90°
2026-05-07 19:05 39.50590 -119.77276 4500 ft 2 kts 90°
2026-05-07 19:05 39.50590 -119.77273 4502 ft 0 kts 90°
2026-05-07 19:05 39.50590 -119.77268 4503 ft 2 kts 90°
2026-05-07 19:06 39.50590 -119.77245 4503 ft 3 kts 90°
2026-05-07 19:06 39.50571 -119.77153 4507 ft 8 kts 153°
2026-05-07 19:06 39.50510 -119.77151 4509 ft 9 kts 181°
2026-05-07 19:07 39.50441 -119.77152 4509 ft 11 kts 180°
2026-05-07 19:07 39.50359 -119.77151 4507 ft 12 kts 180°
2026-05-07 19:07 39.50271 -119.77151 4509 ft 13 kts 180°
2026-05-07 19:07 39.50175 -119.77152 4507 ft 14 kts 180°
2026-05-07 19:08 39.50071 -119.77153 4506 ft 15 kts 181°
2026-05-07 19:08 39.49961 -119.77155 4508 ft 16 kts 181°
2026-05-07 19:08 39.49848 -119.77153 4504 ft 16 kts 180°
2026-05-07 19:08 39.49735 -119.77153 4508 ft 17 kts 180°
2026-05-07 19:09 39.49612 -119.77153 4505 ft 18 kts 180°
2026-05-07 19:09 39.49486 -119.77155 4507 ft 18 kts 180°
2026-05-07 19:09 39.49355 -119.77155 4507 ft 19 kts 180°
2026-05-07 19:09 39.49223 -119.77156 4509 ft 18 kts 180°
2026-05-07 19:10 39.49105 -119.77156 4507 ft 17 kts 180°
2026-05-07 19:10 39.48985 -119.77156 4506 ft 16 kts 180°
2026-05-07 19:10 39.48922 -119.77093 4504 ft 10 kts 91°
2026-05-07 19:10 39.48925 -119.77009 4509 ft 9 kts 88°
2026-05-07 19:11 39.48925 -119.76919 4506 ft 11 kts 91°
2026-05-07 19:11 39.48923 -119.76820 4510 ft 11 kts 90°
2026-05-07 19:11 39.48928 -119.76712 4506 ft 13 kts 66°
2026-05-07 19:11 39.49007 -119.76681 4505 ft 13 kts 358°
2026-05-07 19:12 39.49220 -119.76681 4512 ft 66 kts
2026-05-07 19:12 39.49931 -119.76678 4509 ft 135 kts
2026-05-07 19:12 39.51026 -119.76675 4678 ft 166 kts 357°
2026-05-07 19:12 39.52166 -119.76674 5426 ft 165 kts 359°
2026-05-07 19:13 39.53338 -119.76665 6059 ft 169 kts 357°
2026-05-07 19:13 39.54512 -119.76656 6465 ft 173 kts 356°
2026-05-07 19:13 39.55766 -119.76646 6679 ft 188 kts 357°
2026-05-07 19:13 39.57141 -119.76638 6898 ft 206 kts 358°
2026-05-07 19:14 39.58629 -119.76497 7104 ft 226 kts 17°
2026-05-07 19:14 39.59925 -119.75251 7348 ft 246 kts 57°
2026-05-07 19:14 39.60475 -119.73109 7747 ft 260 kts 83°
2026-05-07 19:14 39.60562 -119.70701 8169 ft 274 kts 91°
2026-05-07 19:15 39.60496 -119.68192 8763 ft 282 kts 92°
2026-05-07 19:15 39.60424 -119.65660 8946 ft 281 kts 92°
2026-05-07 19:15 39.60327 -119.63129 8975 ft 280 kts 102°
2026-05-07 19:15 39.59476 -119.60945 9055 ft 282 kts 139°
2026-05-07 19:16 39.57885 -119.59325 9515 ft 294 kts 146°
2026-05-07 19:16 39.56190 -119.57770 10110 ft 303 kts 147°
2026-05-07 19:16 39.54430 -119.56192 10493 ft 320 kts 147°
2026-05-07 19:16 39.52548 -119.54513 10829 ft 337 kts 147°
2026-05-07 19:17 39.50579 -119.52743 11189 ft 351 kts 147°
2026-05-07 19:17 39.48557 -119.50909 11764 ft 357 kts 147°
2026-05-07 19:17 39.46515 -119.49048 12392 ft 362 kts 147°
2026-05-07 19:17 39.44447 -119.47157 13011 ft 366 kts 147°
2026-05-07 19:18 39.42358 -119.45246 13630 ft 370 kts 147°
2026-05-07 19:18 39.40245 -119.43315 14170 ft 374 kts 147°
2026-05-07 19:18 39.38112 -119.41365 14686 ft 377 kts 147°
2026-05-07 19:18 39.35954 -119.39397 15210 ft 381 kts 146°
2026-05-07 19:19 39.33779 -119.37416 15740 ft 384 kts 146°
2026-05-07 19:19 39.31585 -119.35417 16260 ft 388 kts 146°
2026-05-07 19:19 39.29369 -119.33402 16798 ft 391 kts 146°
2026-05-07 19:19 39.27137 -119.31371 17332 ft 394 kts 146°
2026-05-07 19:20 39.24883 -119.29319 17863 ft 398 kts 146°
2026-05-07 19:20 39.22698 -119.27103 18393 ft 402 kts 137°
2026-05-07 19:20 39.20689 -119.24576 18875 ft 406 kts 136°
2026-05-07 19:20 39.18665 -119.22023 19396 ft 408 kts 136°
2026-05-07 19:21 39.16626 -119.19459 19923 ft 411 kts 136°
2026-05-07 19:21 39.14571 -119.16886 20444 ft 413 kts 136°
2026-05-07 19:21 39.12501 -119.14302 20961 ft 416 kts 136°
2026-05-07 19:21 39.10421 -119.11704 21468 ft 418 kts 135°
2026-05-07 19:22 39.08325 -119.09083 21966 ft 420 kts 135°
2026-05-07 19:22 39.06219 -119.06453 22447 ft 423 kts 135°
2026-05-07 19:22 39.04101 -119.03813 22908 ft 426 kts 135°
2026-05-07 19:22 39.01968 -119.01158 23376 ft 428 kts 135°
2026-05-07 19:23 38.99847 -118.98519 23777 ft 431 kts 135°
2026-05-07 19:23 38.98390 -118.96706 24031 ft 432 kts 135°
2026-05-07 19:23 38.95506 -118.93154 24536 ft 435 kts 136°
2026-05-07 19:23 38.93299 -118.90484 24912 ft 437 kts 136°
2026-05-07 19:24 38.91069 -118.87811 25273 ft 439 kts 136°
2026-05-07 19:24 38.88828 -118.85133 25629 ft 441 kts 136°
2026-05-07 19:24 38.87306 -118.83315 25867 ft 443 kts 136°
2026-05-07 19:24 38.85044 -118.80612 26228 ft 445 kts 136°
2026-05-07 19:25 38.82805 -118.77933 26586 ft 447 kts 136°
2026-05-07 19:25 38.80524 -118.75204 26920 ft 449 kts 136°
2026-05-07 19:25 38.78232 -118.72459 27261 ft 451 kts 136°
2026-05-07 19:25 38.75934 -118.69705 27593 ft 453 kts 136°
2026-05-07 19:26 38.73617 -118.66930 27924 ft 455 kts 136°
2026-05-07 19:26 38.71296 -118.64156 28270 ft 458 kts 136°
2026-05-07 19:26 38.68962 -118.61375 28592 ft 460 kts 136°
2026-05-07 19:26 38.66610 -118.58576 28913 ft 462 kts 136°
2026-05-07 19:27 38.64252 -118.55773 29221 ft 464 kts 136°
2026-05-07 19:27 38.61882 -118.52959 29525 ft 466 kts 136°
2026-05-07 19:27 38.59502 -118.50135 29878 ft 466 kts 136°
2026-05-07 19:27 38.57131 -118.47323 30300 ft 465 kts 136°
2026-05-07 19:28 38.54765 -118.44512 30673 ft 463 kts 136°
2026-05-07 19:28 38.52407 -118.41709 31049 ft 462 kts 136°
2026-05-07 19:28 38.50057 -118.38923 31422 ft 461 kts 136°
2026-05-07 19:28 38.47706 -118.36146 31790 ft 460 kts 136°
2026-05-07 19:29 38.45363 -118.33381 32167 ft 458 kts 136°
2026-05-07 19:29 38.43019 -118.30617 32465 ft 459 kts 136°
2026-05-07 19:29 38.40673 -118.27848 32746 ft 460 kts 136°
2026-05-07 19:29 38.38327 -118.25079 32985 ft 460 kts 136°
2026-05-07 19:30 38.33564 -118.19466 33033 ft 472 kts 136°
2026-05-07 19:30 38.28721 -118.13778 33031 ft 474 kts 136°
2026-05-07 19:31 38.23895 -118.08133 33031 ft 474 kts 136°
2026-05-07 19:31 38.19043 -118.02459 33030 ft 474 kts 136°
2026-05-07 19:32 38.14182 -117.96777 33024 ft 474 kts 136°
2026-05-07 19:32 38.09358 -117.91155 33032 ft 474 kts 136°
2026-05-07 19:33 38.04487 -117.85496 33031 ft 474 kts 136°
2026-05-07 19:33 37.99668 -117.79893 33030 ft 474 kts 136°
2026-05-07 19:34 37.94900 -117.74358 33029 ft 453 kts 136°
2026-05-07 19:34 37.90218 -117.68939 33025 ft 456 kts 136°
2026-05-07 19:35 37.85527 -117.63532 33027 ft 456 kts 136°
2026-05-07 19:35 37.80839 -117.58125 33024 ft 456 kts 136°
2026-05-07 19:36 37.76269 -117.52867 33026 ft 456 kts 136°
2026-05-07 19:36 37.71581 -117.47485 33030 ft 456 kts 136°
2026-05-07 19:37 37.66883 -117.42091 33034 ft 456 kts 136°
2026-05-07 19:37 37.62183 -117.36710 33037 ft 456 kts 136°
2026-05-07 19:38 37.57476 -117.31338 33043 ft 456 kts 136°
2026-05-07 19:38 37.52772 -117.25972 33044 ft 456 kts 136°
2026-05-07 19:39 37.48058 -117.20614 33036 ft 457 kts 139°
2026-05-07 19:39 37.42876 -117.15953 33034 ft 458 kts 144°
2026-05-07 19:40 37.37627 -117.11394 33033 ft 458 kts 144°
2026-05-07 19:40 37.32387 -117.06850 33040 ft 458 kts 144°
2026-05-07 19:41 37.27155 -117.02316 33033 ft 457 kts 144°
2026-05-07 19:41 37.21933 -116.97793 33022 ft 457 kts 143°
2026-05-07 19:42 37.16739 -116.93297 33018 ft 457 kts 143°
2026-05-07 19:42 37.11471 -116.88754 33009 ft 457 kts 143°
2026-05-07 19:43 37.06272 -116.84263 33006 ft 457 kts 143°
2026-05-07 19:43 37.01038 -116.79769 32999 ft 456 kts 143°
2026-05-07 19:44 36.95797 -116.75279 32995 ft 457 kts 143°
2026-05-07 19:44 36.90560 -116.70789 32997 ft 456 kts 143°
2026-05-07 19:45 36.85328 -116.66303 32302 ft 456 kts 143°
2026-05-07 19:45 36.82720 -116.64075 31778 ft 452 kts 143°
2026-05-07 19:45 36.80132 -116.61869 31254 ft 449 kts 143°
2026-05-07 19:46 36.77565 -116.59685 30734 ft 445 kts 143°
2026-05-07 19:46 36.75018 -116.57517 30219 ft 442 kts 143°
2026-05-07 19:46 36.72481 -116.55354 29658 ft 441 kts 143°
2026-05-07 19:46 36.70094 -116.53319 29179 ft 450 kts 143°
2026-05-07 19:47 36.67465 -116.51079 28675 ft 447 kts 143°
2026-05-07 19:47 36.65015 -116.48751 28185 ft 441 kts 135°
2026-05-07 19:47 36.62921 -116.46014 27716 ft 433 kts 129°
2026-05-07 19:47 36.60946 -116.43207 27260 ft 427 kts 129°
2026-05-07 19:48 36.58997 -116.40446 26818 ft 422 kts 129°
2026-05-07 19:48 36.57066 -116.37716 26384 ft 418 kts 129°
2026-05-07 19:48 36.55152 -116.35014 25952 ft 415 kts 129°
2026-05-07 19:48 36.53251 -116.32334 25532 ft 412 kts 129°
2026-05-07 19:49 36.51503 -116.29873 25144 ft 409 kts 129°
2026-05-07 19:49 36.49572 -116.27153 24708 ft 407 kts 129°
2026-05-07 19:49 36.47700 -116.24520 24287 ft 406 kts 129°
2026-05-07 19:49 36.45835 -116.21894 23857 ft 405 kts 129°
2026-05-07 19:50 36.43981 -116.19282 23542 ft 399 kts 129°
2026-05-07 19:50 36.42160 -116.16719 23202 ft 394 kts 129°
2026-05-07 19:50 36.40350 -116.14173 22694 ft 392 kts 129°
2026-05-07 19:50 36.38560 -116.11667 22077 ft 383 kts 129°
2026-05-07 19:51 36.36825 -116.09245 21638 ft 369 kts 129°
2026-05-07 19:51 36.35146 -116.06900 21159 ft 358 kts 129°
2026-05-07 19:51 36.33499 -116.04598 20737 ft 356 kts 129°
2026-05-07 19:51 36.31860 -116.02304 20325 ft 354 kts 129°
2026-05-07 19:52 36.30232 -116.00020 19905 ft 353 kts 129°
2026-05-07 19:52 36.28607 -115.97745 19487 ft 352 kts 129°
2026-05-07 19:52 36.26983 -115.95479 19080 ft 351 kts 129°
2026-05-07 19:52 36.25430 -115.93315 18967 ft 343 kts 129°
2026-05-07 19:53 36.23874 -115.91062 18698 ft 344 kts 127°
2026-05-07 19:53 36.22387 -115.88750 18354 ft 341 kts 125°
2026-05-07 19:53 36.20949 -115.86431 17980 ft 338 kts 125°
2026-05-07 19:53 36.19531 -115.84122 17648 ft 336 kts 125°
2026-05-07 19:54 36.18118 -115.81833 17317 ft 334 kts 125°
2026-05-07 19:54 36.16700 -115.79560 16991 ft 333 kts 125°
2026-05-07 19:54 36.15279 -115.77299 16668 ft 331 kts 126°
2026-05-07 19:54 36.13970 -115.74980 16339 ft 327 kts 116°
2026-05-07 19:55 36.13055 -115.72423 16013 ft 324 kts 108°
2026-05-07 19:55 36.12265 -115.69823 15693 ft 322 kts 108°
2026-05-07 19:55 36.11471 -115.67240 15372 ft 322 kts 108°
2026-05-07 19:55 36.10677 -115.64665 15058 ft 320 kts 108°
2026-05-07 19:56 36.09885 -115.62101 14742 ft 318 kts 109°
2026-05-07 19:56 36.09097 -115.59554 14425 ft 316 kts 109°
2026-05-07 19:56 36.08314 -115.57022 14111 ft 314 kts 108°
2026-05-07 19:56 36.07539 -115.54506 13796 ft 313 kts 109°
2026-05-07 19:57 36.06765 -115.51994 13468 ft 311 kts 109°
2026-05-07 19:57 36.05998 -115.49512 13157 ft 309 kts 109°
2026-05-07 19:57 36.05227 -115.47021 12853 ft 310 kts 109°
2026-05-07 19:57 36.04455 -115.44537 12545 ft 309 kts 109°
2026-05-07 19:58 36.03696 -115.42087 12237 ft 309 kts 110°
2026-05-07 19:58 36.02920 -115.39578 11935 ft 309 kts 109°
2026-05-07 19:58 36.02165 -115.37138 11627 ft 308 kts 109°
2026-05-07 19:58 36.01609 -115.34592 11325 ft 306 kts 96°
2026-05-07 19:59 36.01450 -115.31981 11014 ft 305 kts 92°
2026-05-07 19:59 36.01328 -115.29375 10712 ft 303 kts 92°
2026-05-07 19:59 36.01202 -115.26807 10530 ft 295 kts 92°
2026-05-07 19:59 36.01075 -115.24343 10408 ft 278 kts 92°
2026-05-07 20:00 36.00958 -115.22034 10240 ft 263 kts 92°
2026-05-07 20:00 36.00845 -115.19785 9758 ft 266 kts 91°
2026-05-07 20:00 36.00732 -115.17500 9185 ft 267 kts 92°
2026-05-07 20:00 36.00621 -115.15261 8953 ft 255 kts 92°
2026-05-07 20:01 36.00514 -115.13114 8618 ft 248 kts 92°
2026-05-07 20:01 36.00408 -115.11004 8175 ft 246 kts 92°
2026-05-07 20:01 36.00301 -115.08899 7728 ft 244 kts 92°
2026-05-07 20:01 36.00192 -115.06797 7370 ft 245 kts 92°
2026-05-07 20:02 36.00084 -115.04706 7112 ft 243 kts 92°
2026-05-07 20:02 35.99976 -115.02627 6839 ft 242 kts 92°
2026-05-07 20:02 35.99895 -115.00561 6536 ft 242 kts 91°
2026-05-07 20:02 35.99844 -114.98481 6190 ft 240 kts 91°
2026-05-07 20:03 35.99800 -114.96435 5979 ft 237 kts 91°
2026-05-07 20:03 35.99757 -114.94395 5944 ft 237 kts 90°
2026-05-07 20:03 35.99714 -114.92355 5956 ft 237 kts 91°
2026-05-07 20:03 35.99810 -114.90333 5952 ft 236 kts 75°
2026-05-07 20:04 36.00490 -114.88563 5945 ft 221 kts 49°
2026-05-07 20:04 36.01615 -114.87422 5955 ft 211 kts 24°
2026-05-07 20:04 36.03048 -114.86958 5957 ft 218 kts 359°
2026-05-07 20:04 36.04520 -114.87309 5962 ft 220 kts 334°
2026-05-07 20:05 36.05872 -114.88210 5940 ft 221 kts 330°
2026-05-07 20:05 36.07198 -114.89102 5939 ft 210 kts 331°
2026-05-07 20:05 36.08481 -114.89956 5966 ft 210 kts 331°
2026-05-07 20:05 36.09763 -114.90803 5946 ft 209 kts 331°
2026-05-07 20:06 36.11013 -114.91629 5930 ft 198 kts 331°
2026-05-07 20:06 36.12174 -114.92537 5930 ft 197 kts 318°
2026-05-07 20:06 36.13061 -114.93824 5933 ft 198 kts 301°
2026-05-07 20:06 36.13597 -114.95394 5697 ft 199 kts 283°
2026-05-07 20:07 36.13752 -114.97079 5414 ft 197 kts 274°
2026-05-07 20:07 36.13845 -114.98759 5162 ft 194 kts 273°
2026-05-07 20:07 36.13926 -115.00381 4923 ft 180 kts 273°
2026-05-07 20:07 36.13995 -115.01852 4711 ft 163 kts 272°
2026-05-07 20:08 36.14038 -115.02759 4591 ft 157 kts 272°
2026-05-07 20:08 36.14104 -115.04133 4391 ft 161 kts 272°
2026-05-07 20:08 36.14171 -115.05511 4200 ft 161 kts 272°
2026-05-07 20:08 36.14233 -115.06893 4012 ft 161 kts 270°
2026-05-07 20:09 36.14213 -115.08272 3761 ft 160 kts 266°
2026-05-07 20:09 36.14156 -115.09655 3578 ft 161 kts 266°
2026-05-07 20:09 36.14092 -115.11038 3414 ft 162 kts 260°
2026-05-07 20:10 36.13282 -115.13570 2946 ft 159 kts 226°
2026-05-07 20:10 36.12397 -115.14350 2797 ft 156 kts 201°
2026-05-07 20:10 36.11401 -115.14850 2608 ft 150 kts 200°
2026-05-07 20:10 36.10448 -115.15374 2361 ft 148 kts 203°
2026-05-07 20:11 36.09524 -115.15900 2193 ft 144 kts 203°
2026-05-07 20:11 36.08724 -115.16356 2193 ft 95 kts 206°
2026-05-07 20:11 36.08313 -115.16596 2193 ft 44 kts 205°
2026-05-07 20:11 36.08184 -115.16604 2190 ft 11 kts 92°
2026-05-07 20:12 36.08165 -115.16509 2190 ft 12 kts 99°
2026-05-07 20:12 36.08161 -115.16399 2190 ft 13 kts 91°
2026-05-07 20:12 36.08161 -115.16276 2190 ft 16 kts 89°
2026-05-07 20:12 36.08162 -115.16133 2188 ft 17 kts 90°
2026-05-07 20:13 36.08161 -115.15976 2188 ft 19 kts 90°
2026-05-07 20:13 36.08162 -115.15804 2191 ft 20 kts 89°
2026-05-07 20:13 36.08163 -115.15644 2190 ft 18 kts 90°
2026-05-07 20:13 36.08205 -115.15535 2191 ft 15 kts
2026-05-07 20:14 36.08302 -115.15571 2189 ft 14 kts 352°
2026-05-07 20:14 36.08370 -115.15502 2189 ft 14 kts 49°
2026-05-07 20:14 36.08440 -115.15457 2189 ft 9 kts 11°
2026-05-07 20:14 36.08478 -115.15448 2189 ft 3 kts 11°
2026-05-07 20:15 36.08485 -115.15446 2189 ft 0 kts 11°